sat.trackr.live / text

‹ back to catalog

STARLINK-33723

NORAD 63593 · 2025-076AA

PAYLOAD ACTIVE UNKNOWN

§ Identity

Operator
Country
US
Launch date
2025-04-14
Launch site
AFETR
Launch vehicle
Mass (kg)
RCS (m²)

Purposes: comms

External: N2YO · Heavens-Above · Gunter

§ Orbital elements

Epoch: 2026-05-25T00:07:08.260608Z

Period
94.27 min
Inclination
42.9970°
Eccentricity
0.0000351
Mean motion
15.27586169 rev/d
Perigee alt
482.8 km
Apogee alt
483.3 km
Semi-major
6,861.2 km
B*
4.2699e-4
RAAN
250.5428°
Arg perigee
50.1162°
Mean anomaly
309.9721°
Rev number
6,350

§ Raw data

STARLINK-337231 63593U 25076AA  26145.00495672  .00011509  00000+0  42699-3 0  99952 63593  42.9970 250.5428 0000351  50.1162 309.9721 15.27586169 63504

JSON: /api/v1/satellites/63593 · /tle

For live sub-satellite position, see the globe view (requires WebGL).

§ Visibility from observer

Set your observer location to see the next 7 days of passes ≥ 10°. The values pass through the URL so the page stays shareable.

No JS? Fill the form by hand. The geolocation button needs JavaScript.